Location: Unspecified
(33.4706°N, 0.0000°E)
Time: 04:16:36
(UTC+00:00)

SPOT 5 - Visible Passes

Search period start: 04 April 2026 00:00
Search period end: 14 April 2026 00:00
Orbit: 618 x 803 km, 98.0° (Epoch: 29 March)

Date Brightness Start Highest point End Pass type
(mag) Time Alt. Az. Time Alt. Az. Time Alt. Az.
4 Apr 4.2 18:50:52 10° ESE 18:54:38 22° ENE 18:58:16 10° NNE visible
4 Apr 4.4 20:28:17 13° SSW 20:32:18 34° W 20:36:44 10° NNW visible
5 Apr 2.9 19:34:57 12° SSE 19:39:37 64° ENE 19:44:22 10° N visible
5 Apr 5.8 21:16:25 10° WSW 21:17:45 11° W 21:19:03 10° WNW visible
6 Apr 4.4 18:43:55 10° ESE 18:47:12 18° ENE 18:50:23 10° NNE visible
6 Apr 4.0 20:20:40 13° SSW 20:24:48 41° W 20:29:21 10° NNW visible
7 Apr 3.0 19:27:21 10° SSE 19:32:10 53° ENE 19:36:46 10° N visible
7 Apr 5.6 21:07:54 10° WSW 21:10:13 13° W 21:12:30 10° WNW visible
8 Apr 3.7 20:13:04 13° S 20:17:19 49° W 20:21:55 10° NNW visible
9 Apr 3.2 19:20:01 10° SE 19:24:41 43° ENE 19:29:08 10° N visible
9 Apr 5.5 20:59:45 10° SW 21:02:41 16° W 21:05:32 10° WNW visible
10 Apr 3.3 20:05:27 13° S 20:09:49 59° W 20:14:27 10° NNW visible
11 Apr 3.5 19:12:47 10° SE 19:17:13 36° ENE 19:21:27 10° N visible
11 Apr 5.2 20:51:45 10° SW 20:55:08 19° W 20:58:25 10° NW visible
12 Apr 3.0 19:57:50 12° S 20:02:18 71° WSW 20:06:57 10° NNW visible
13 Apr 3.7 19:05:35 10° SE 19:09:44 30° ENE 19:13:44 10° NNE visible
13 Apr 5.0 20:43:53 10° SSW 20:47:36 22° W 20:51:12 10° NW visible
